This is the latest recevied weather packets stored in our database for station/object AD0YN. If no packets are shown the sender has not sent any weather packets the latest 10 day(s).
| Time | Temp. | Humidity | Pressure | Rain* | Wind** | Luminosity | Snow |
|---|---|---|---|---|---|---|---|
| 1777568376 | 15.56° C | 52% | 1017.1 hPa | 0 mm | - | 846 W/m² | - |
| 1777568073 | 15.56° C | 52% | 1017.2 hPa | 0 mm | - | 930 W/m² | - |
| 1777567769 | 15.56° C | 56% | 1017.2 hPa | 0 mm | - | 626 W/m² | - |
| 1777567466 | 15.56° C | 54% | 1017.4 hPa | 0 mm | - | 639 W/m² | - |
| 1777567164 | 14.44° C | 58% | 1017.6 hPa | 0 mm | - | 449 W/m² | - |
| 1777566861 | 14.44° C | 57% | 1017.7 hPa | 0 mm | - | 307 W/m² | - |
| 1777566559 | 14.44° C | 56% | 1017.7 hPa | 0 mm | - | 236 W/m² | - |
| 1777566256 | 14.44° C | 55% | 1017.8 hPa | 0 mm | - | 258 W/m² | - |
| 1777565953 | 14.44° C | 55% | 1017.9 hPa | 0 mm | - | 273 W/m² | - |
| 1777565649 | 15° C | 52% | 1017.9 hPa | 0 mm | - | 247 W/m² | - |
| 1777565346 | 15.56° C | 57% | 1018 hPa | 0 mm | - | 574 W/m² | - |
| 1777565041 | 15° C | 57% | 1018.1 hPa | 0 mm | - | 526 W/m² | - |
| 1777564737 | 15° C | 60% | 1018 hPa | 0 mm | - | 472 W/m² | - |
| 1777564432 | 15° C | 61% | 1017.8 hPa | 0 mm | - | 473 W/m² | - |
| 1777564129 | 13.89° C | 64% | 1017.7 hPa | 0 mm | - | 535 W/m² | - |
| 1777563824 | 13.89° C | 64% | 1017.6 hPa | 0 mm | - | 393 W/m² | - |
| 1777563521 | 13.33° C | 67% | 1018 hPa | 0 mm | - | 361 W/m² | - |
| 1777563220 | 12.78° C | 65% | 1017.7 hPa | 0 mm | - | 390 W/m² | - |
| 1777562917 | 12.78° C | 66% | 1017.7 hPa | 0 mm | - | 343 W/m² | - |
| 1777562613 | 12.78° C | 67% | 1017.8 hPa | 0 mm | - | 384 W/m² | - |
| 1777562312 | 12.22° C | 70% | 1017.8 hPa | 0 mm | - | 413 W/m² | - |
| 1777562009 | 12.22° C | 70% | 1018.2 hPa | 0 mm | - | 240 W/m² | - |
| 1777561706 | 12.22° C | 71% | 1018 hPa | 0 mm | - | 159 W/m² | - |
| 1777561401 | 12.22° C | 71% | 1018 hPa | 0 mm | - | 143 W/m² | - |
| 1777561097 | 11.67° C | 72% | 1017.8 hPa | 0 mm | - | 184 W/m² | - |
* Rain latest hour (hover to see other rain measurements)
** Current wind speed in m/s (hover to see current wind gust speed)